Regional Weather Roundup
Issued by NWS Sioux Falls, SD

Home | Current Version | Previous Version | Graphics & Text | Print | Product List | Glossary On
Versions: 1 2 3 4 5 6 7 8 9 10 11 12 13 14 15 16 17 18 19 20 21 22 23 24 25 26 27 28 29 30 31 32 33 34 35 36 37 38 39 40 41 42 43 44 45 46 47 48 49 50
000
ASUS43 KFSD 302110
RWRFSD

WEATHER ROUNDUP FOR SE SOUTH DAKOTA/SW MINNESOTA/NW IOWA
NATIONAL WEATHER SERVICE SIOUX FALLS SD
400 PM CDT TUE JUN 30 2015

NOTE: "FAIR" INDICATES FEW OR NO CLOUDS BELOW 12,000 FEET WITH NO
SIGNIFICANT WEATHER AND OR OBSTRUCTIONS TO VISIBILITY.


SDZ038>040-050-052>070-302200-
SOUTHEAST SOUTH DAKOTA

CITY           SKY/WX    TMP DP  RH WIND       PRES   REMARKS
BROOKINGS      CLOUDY    75  63  64 E9        29.93F
CHAMBERLAIN    CLOUDY    74  65  72 SE9       29.90R
HURON          LGT RAIN  71  67  87 SE6       29.90F
MADISON        LGT RAIN  72  66  83 SE7       29.92F
MITCHELL       LGT RAIN  72  69  90 NE6       29.91S
SIOUX FALLS    LGT RAIN  75  64  68 SE6       29.92S
WINNER         FAIR      79  60  52 SE15G24   29.88F
YANKTON        CLOUDY    72  64  78 SE7       29.89F
$$

MNZ071-072-080-081-089-090-097-098-302200-
SOUTHWEST MINNESOTA

CITY           SKY/WX    TMP DP  RH WIND       PRES   REMARKS
FAIRMONT       CLOUDY    73  57  56 N3        29.93S
JACKSON        CLOUDY    72  63  73 NE6       29.95S
LUVERNE        CLOUDY    79  61  53 E5        29.93S
MARSHALL       CLOUDY    70  61  73 SE6         N/A
MONTEVIDEO     CLOUDY    72  61  68 CALM      29.93F
PIPESTONE      CLOUDY    73  63  68 SE6       29.94F
REDWOOD FALLS  CLOUDY    74  59  59 E3        29.92F
TRACY          CLOUDY    71  63  76 E3        29.94F
WINDOM         CLOUDY    72  61  68 CALM      29.94S
WORTHINGTON    CLOUDY    73  63  68 NE7       29.94S
$$

IAZ001>003-012>014-020>022-031-032-NEZ013-014-SDZ071-302200-
NORTHWEST IOWA

CITY           SKY/WX    TMP DP  RH WIND       PRES   REMARKS
CHEROKEE       CLOUDY    78  66  67 CALM      29.91S
DENISON        CLOUDY    75  68  78 SW5       29.91S
ESTHERVILLE    CLOUDY    73  62  68 N6        29.93S
LE MARS        CLOUDY    73  66  78 CALM      29.92S
ORANGE CITY    CLOUDY    73  64  73 CALM      29.92F
SHELDON        CLOUDY    77  63  61 NE3       29.92S
SIOUX CITY     LGT RAIN  74  67  78 CALM      29.91F
SPENCER        CLOUDY    78  62  57 E5        29.93S
STORM LAKE     PTSUNNY   77  64  65 CALM      29.93F
$$

ABBREVIATIONS USED IN REMARKS
   TC - TEMPERATURE IN CELSIUS
  WCI - WIND CHILL INDEX
   HX - HEAT INDEX
  VSB - VISIBILITY



USA.gov is the U.S. government's official web portal to all federal, state and local government web resources and services.